OBJECT C, 62727

Orbit data source: Space-Track

You're viewing an Uncataloged Satellite

Recently launched and/or uncataloged satellites may have evolving metadata. Metadata may include but not limited to: Owner, Maufacturer, Bus, Motor, and Mission.

OBJECT C, 62727 is a Chinese satellite in SSO that was launched on Fri, 17 Jan 2025 UTC via a CHANG ZHENG 2D launch vehicle from the Jiuquan Satellite Launch Center, China (JSC). Unknown objects in Earth's orbit typically refer to objects detected orbiting the Earth but have not yet been identified or cataloged. These objects could be anything from previously untracked satellites, spent rocket stages, debris from satellite collisions, or even natural meteoroids temporarily captured by Earth's gravity.

Loading next visibility...
Identifier
62727, 2025-012C
Orbit
SSO
Country
Flag of CNCN / PRC
Related business
None
Manufacturer
Unknown
Mission
Operational Civil Imaging
Bus & Motor
Unknown
Mass
Unknown
Launch date (UTC)
2025-01-17 (10 months ago)
Launch vehicle
CHANG ZHENG 2D
Launch site
Jiuquan Satellite Launch Center, China (JSC)
Object type
Unknown
Shape & HBR
Box + 2 Pan, 1.3 m
Radar Cross Section
0.583 m², Large (>1 m²)

Expand to show TLE details & history
Last TLE update: 4 hours ago

TLE from 4 hours ago
0 OBJECT C
1 62727U 25012C   25311.81961609  .00018388  00000-0  81051-3 0  9992
2 62727  97.4502  23.8552 0007549 330.6647  29.4165 15.21831317 44650
Epoch: 2025-11-07T19:40Z
TLE epoch observation values (Epoch: 2025-11-07T19:40:14.830Z)
Latitude
0.00007°
Longitude
41.53529°
Altitude
498.885 km
Speed
7.618 km/s
True Right ascension
01h 35m 25s
True Declination
0° 00' 00"
Sunlit
Object was in full shadow at epoch
Visualization orbit readout
Latitude
Unknown
Longitude
Unknown
Altitude
Unknown
Speed
Unknown
Apparent Right ascension
Unknown
Apparent Declination
Unknown
Sunlit
N/A
Visualization observer readout
Local Sidereal Time
19:24:31
Azimuth
Unknown
Elevation
Unknown
Doppler factor
Unknown
Orbital elements
Apogee altitude
502.472 km
Perigee altitude
492.092 km
Semi-major axis
6,875.419 km
Eccentricity
0.00075
Inclination
97.4502°
RAAN
23.8552°
Arg. of periapsis
330.6647°
True anomaly
29.45902°
Mean anomaly
29.4165°
Eccentric anomaly
29.43776°
Mean motion
3.8071 °/min
Orbital period
94.56 mins
BSTAR
0.00081051
Loading maneuver chart data...
Computing Atmospheric mass density...
Loading historical data...
Loading historical data...
Loading historical data...
Loading historical data...
Loading historical data...
Loading historical data...
Loading historical data...
Other satellites on launch #12 in the year 2025 (2025-01-17 UTC)

Documentation

Showing up to 5 results
|